Temp
13 9 9 10 10 12 12 12 12 11 13 14 13 13 7 6 5 4 3 3 2 2 2 3 4 4 5 5 4 3 3 4 2 4 6 8 10 12 12 14 15 15 13 13
10 9 11 13 13 12 12 12 11 12 14 14 13 10 6 6 4 3 2 1 1 1 1 1 2 2 1 1 1 2 1 1 0 1 3 4 6 10 11 12 15 15 14 12
10 11 14 14 13 13 13 13 12 12 13 12 12 10 7 6 5 3 1 0 -0 -1 -1 -1 -1 -1 -1 -0 0 0 -0 -1 -0 1 1 3 4 6 9 11 13 14 13 13
10 13 13 12 12 13 12 13 13 12 11 9 11 7 8 6 4 3 1 -1 -1 -2 -2 -2 -2 -1 -1 -1 -1 -2 -2 -2 -2 -1 -1 0 1 3 7 9 11 13 12 13
10 11 11 11 13 14 12 14 13 12 11 10 10 7 8 8 5 2 0 -1 -2 -2 -2 -2 -1 -2 -2 -2 -3 -3 -3 -3 -3 -3 -2 -1 -1 -0 1 6 9 11 13 13
10 12 11 11 13 14 14 13 11 11 10 7 10 9 6 3 2 2 -0 -1 -2 -3 -2 -1 -2 -3 -3 -3 -4 -4 -3 -2 -3 -3 -3 -2 -1 0 1 2 8 10 11 12
10 11 12 13 11 12 13 9 6 7 6 8 12 9 3 2 1 0 -1 -1 -2 -3 -3 -3 -3 -4 -5 -5 -4 -4 -3 -3 -4 -3 -2 -2 -1 0 2 2 5 6 10 11
8 8 12 12 12 12 11 10 7 8 6 7 11 9 3 2 1 0 -1 -2 -3 -4 -4 -4 -4 -4 -5 -5 -5 -4 -4 -4 -4 -3 -2 -2 -1 1 2 3 4 6 8 9
9 9 12 13 13 13 12 11 12 9 9 5 6 4 4 3 1 -0 -1 -2 -3 -4 -4 -4 -4 -4 -5 -5 -5 -5 -5 -4 -4 -4 -3 -2 -1 1 3 4 6 6 8 9
9 6 11 12 12 13 13 12 8 6 6 8 7 6 3 1 -0 -1 -2 -3 -3 -4 -4 -4 -4 -4 -5 -5 -5 -4 -4 -5 -5 -4 -4 -2 -2 1 2 3 5 7 7 8
9 5 8 11 11 11 11 10 10 9 7 7 5 5 3 1 -3 -3 -2 -2 -4 -4 -4 -3 -5 -4 -4 -4 -4 -4 -4 -4 -5 -5 -4 -4 -4 -1 0 2 5 6 7 8
9 7 6 9 11 11 11 10 11 7 9 5 4 3 1 -0 -1 -1 -2 -2 -4 -4 -4 -4 -4 -5 -4 -3 -3 -3 -4 -4 -5 -5 -4 -5 -5 -4 -2 1 2 5 7 8
8 6 4 8 10 8 8 9 9 7 5 4 3 2 1 0 -0 -1 -1 -3 -4 -4 -4 -3 -3 -5 -5 -4 -4 -4 -4 -4 -4 -5 -4 -5 -5 -5 -5 -2 1 3 5 6
8 6 6 6 6 6 7 7 6 5 2 3 3 1 1 0 -1 -1 -1 -3 -4 -4 -4 -4 -4 -4 -4 -5 -4 -4 -5 -4 -4 -4 -5 -5 -5 -6 -6 -5 -1 2 4 6
6 3 6 6 7 7 7 7 7 5 5 4 2 3 1 -0 -0 -1 -2 -3 -4 -4 -4 -5 -5 -4 -5 -5 -5 -5 -4 -4 -5 -4 -4 -5 -5 -5 -6 -5 -2 -1 2 2
5 2 3 5 7 6 5 6 6 6 6 4 5 3 1 -0 -1 -2 -3 -3 -4 -4 -5 -5 -5 -5 -5 -5 -5 -5 -5 -5 -5 -5 -5 -5 -6 -6 -5 -4 -4 -2 -1 2
5 3 3 4 7 6 4 4 5 5 5 5 4 3 0 -0 -1 -2 -3 -4 -4 -4 -5 -5 -5 -5 -5 -5 -5 -5 -5 -6 -5 -5 -4 -3 -3 -2 -3 -3 -2 -1 -1 1
4 4 4 4 6 3 5 6 6 6 7 3 2 1 0 -0 -2 -3 -4 -4 -4 -4 -5 -5 -5 -5 -5 -5 -5 -6 -6 -6 -5 -5 -4 -3 -3 -3 -3 -4 -4 -4 -3 -3
6 5 4 5 5 4 6 5 5 6 5 3 1 -1 -2 -3 -4 -4 -4 -4 -4 -4 -5 -5 -5 -6 -5 -6 -6 -6 -6 -6 -6 -7 -7 -6 -6 -5 -5 -5 -5 -4 -3 -1
6 6 4 3 5 4 4 4 4 6 3 3 1 -1 -3 -4 -1 -3 -4 -4 -4 -4 -5 -5 -5 -5 -5 -6 -6 -5 -7 -7 -7 -7 -8 -7 -7 -7 -7 -6 -6 -5 -4 -3
5 4 4 4 4 5 3 3 4 5 3 3 1 -1 -3 -3 -1 -3 -3 -4 -4 -4 -5 -5 -5 -5 -6 -6 -6 -5 -6 -8 -8 -7 -7 -7 -7 -7 -7 -6 -6 -5 -4 -4
5 4 4 4 4 4 2 2 3 1 -1 0 1 0 -2 -2 -3 -4 -4 -4 -4 -5 -5 -5 -5 -5 -6 -6 -6 -6 -6 -7 -7 -6 -7 -7 -8 -8 -7 -7 -6 -5 -5 -4
5 5 4 3 2 -0 0 0 2 2 1 -1 -1 -1 -2 -3 -4 -4 -4 -4 -5 -5 -5 -6 -6 -6 -6 -6 -6 -7 -8 -7 -8 -7 -8 -9 -9 -9 -8 -8 -8 -7 -6 -6
4 4 1 1 -0 -1 -0 -0 0 1 1 -1 -1 -3 -3 -4 -5 -5 -5 -5 -5 -6 -6 -6 -6 -6 -6 -6 -7 -7 -8 -8 -8 -9 -8 -8 -8 -8 -8 -8 -8 -8 -9 -10
3 3 1 0 -0 -1 -1 -1 -1 -2 -1 -2 -3 -4 -4 -5 -6 -6 -6 -6 -5 -6 -6 -7 -7 -7 -7 -8 -7 -7 -7 -8 -8 -9 -9 -9 -9 -10 -10 -10 -10 -10 -11 -12
3 1 0 0 0 -0 -1 -2 -1 -2 -3 -3 -4 -5 -5 -5 -6 -7 -7 -6 -6 -6 -7 -7 -7 -8 -8 -8 -8 -9 -9 -9 -10 -10 -10 -9 -10 -10 -11 -12 -12 -12 -13 -12
Height
1521 1526 1524 1517 1518 1513 1513 1514 1513 1509 1502 1502 1502 1500 1508 1507 1503 1506 1508 1506 1504 1502 1499 1495 1490 1484 1478 1475 1470 1464 1457 1451 1445 1444 1440 1436 1434 1435 1437 1439 1441 1442 1444 1446
1524 1525 1515 1510 1511 1514 1512 1510 1511 1504 1497 1499 1499 1506 1510 1508 1508 1508 1510 1509 1505 1500 1496 1492 1486 1481 1475 1470 1463 1456 1449 1444 1439 1436 1431 1428 1424 1424 1424 1429 1432 1433 1436 1438
1522 1513 1508 1508 1508 1509 1507 1507 1507 1506 1499 1499 1498 1503 1507 1509 1509 1509 1510 1510 1507 1503 1497 1489 1483 1478 1472 1465 1457 1451 1445 1438 1433 1429 1423 1419 1416 1413 1415 1417 1421 1424 1425 1431
1513 1503 1503 1504 1505 1503 1507 1499 1499 1501 1506 1515 1501 1520 1504 1507 1509 1509 1511 1510 1505 1501 1496 1489 1480 1472 1466 1461 1456 1449 1441 1434 1427 1422 1416 1413 1408 1403 1406 1407 1411 1414 1418 1421
1511 1506 1503 1503 1500 1497 1501 1495 1497 1498 1504 1506 1503 1519 1500 1503 1507 1512 1512 1508 1506 1503 1495 1486 1478 1473 1468 1461 1453 1445 1438 1431 1424 1417 1411 1406 1401 1398 1396 1396 1399 1406 1408 1412
1505 1503 1502 1496 1492 1493 1494 1495 1497 1497 1503 1518 1497 1505 1510 1516 1518 1514 1513 1510 1507 1501 1494 1489 1482 1475 1466 1459 1452 1443 1434 1425 1417 1410 1404 1400 1395 1391 1389 1388 1391 1395 1399 1402
1504 1497 1489 1487 1490 1489 1491 1503 1523 1520 1521 1507 1486 1499 1517 1520 1520 1518 1514 1511 1509 1503 1496 1489 1481 1472 1465 1457 1449 1440 1431 1422 1414 1405 1398 1393 1388 1385 1382 1383 1383 1385 1390 1393
1516 1510 1488 1486 1485 1488 1488 1497 1515 1512 1518 1507 1484 1494 1515 1519 1520 1518 1517 1517 1512 1505 1498 1491 1483 1475 1467 1457 1448 1440 1432 1422 1413 1402 1394 1387 1383 1378 1377 1376 1378 1379 1383 1388
1510 1501 1487 1487 1483 1483 1487 1494 1485 1497 1497 1514 1503 1513 1516 1517 1518 1517 1517 1515 1509 1505 1499 1492 1484 1477 1468 1458 1450 1441 1432 1423 1411 1400 1389 1383 1378 1372 1370 1370 1371 1372 1377 1384
1505 1512 1491 1487 1485 1482 1482 1483 1499 1507 1512 1501 1497 1503 1512 1515 1518 1516 1518 1516 1510 1507 1501 1494 1486 1479 1470 1461 1452 1443 1433 1423 1411 1400 1389 1381 1375 1369 1365 1366 1367 1368 1372 1377
1504 1514 1500 1491 1489 1490 1487 1487 1488 1490 1497 1500 1514 1504 1508 1514 1518 1518 1518 1516 1512 1508 1500 1494 1488 1481 1473 1463 1453 1444 1434 1423 1412 1401 1392 1386 1377 1370 1368 1364 1363 1364 1368 1372
1502 1507 1509 1494 1485 1486 1487 1487 1480 1496 1490 1502 1511 1510 1510 1513 1512 1514 1517 1515 1513 1508 1499 1495 1489 1483 1474 1465 1455 1447 1438 1428 1417 1406 1399 1393 1386 1375 1371 1365 1362 1361 1363 1367
1498 1509 1515 1492 1485 1489 1491 1491 1490 1493 1501 1505 1517 1514 1510 1511 1511 1514 1516 1516 1513 1509 1501 1496 1491 1484 1476 1469 1461 1454 1445 1435 1426 1414 1408 1402 1394 1384 1379 1367 1365 1360 1363 1364
1498 1503 1505 1503 1500 1500 1498 1496 1500 1504 1514 1507 1503 1510 1507 1509 1513 1514 1515 1514 1512 1510 1503 1498 1493 1487 1480 1473 1467 1460 1453 1446 1437 1428 1418 1413 1404 1392 1385 1376 1367 1365 1364 1366
1500 1508 1501 1499 1495 1494 1494 1492 1492 1496 1494 1498 1502 1496 1500 1504 1509 1512 1514 1514 1512 1509 1504 1500 1496 1490 1483 1477 1471 1465 1459 1452 1445 1437 1429 1417 1404 1405 1394 1380 1373 1377 1375 1375
1497 1506 1503 1496 1493 1493 1491 1487 1485 1484 1486 1491 1488 1493 1495 1501 1505 1512 1514 1513 1512 1509 1505 1501 1498 1493 1487 1480 1475 1470 1464 1458 1450 1441 1435 1430 1424 1414 1402 1396 1393 1389 1388 1385
1496 1499 1503 1494 1488 1485 1490 1481 1480 1480 1478 1481 1488 1486 1493 1498 1504 1510 1512 1512 1511 1509 1506 1503 1500 1495 1491 1484 1479 1473 1470 1464 1456 1448 1440 1432 1425 1419 1415 1409 1405 1399 1391 1385
1492 1495 1497 1495 1486 1498 1480 1474 1474 1471 1471 1478 1482 1485 1489 1495 1502 1508 1510 1511 1510 1508 1505 1504 1502 1497 1493 1488 1483 1477 1474 1468 1460 1454 1447 1442 1438 1432 1429 1426 1421 1415 1410 1406
1482 1489 1492 1488 1482 1481 1474 1474 1474 1472 1473 1476 1480 1488 1492 1497 1504 1508 1508 1508 1509 1508 1506 1503 1501 1499 1495 1490 1486 1480 1475 1472 1468 1463 1459 1455 1453 1448 1444 1438 1433 1425 1420 1410
1476 1480 1490 1488 1481 1484 1475 1475 1473 1469 1478 1473 1476 1484 1489 1496 1500 1501 1504 1507 1508 1508 1507 1503 1501 1499 1496 1492 1489 1484 1477 1474 1471 1469 1468 1466 1460 1454 1452 1447 1438 1431 1427 1425
1474 1482 1482 1484 1482 1474 1472 1474 1473 1476 1478 1472 1474 1479 1485 1491 1493 1496 1503 1506 1507 1507 1506 1504 1502 1498 1496 1494 1490 1485 1480 1476 1476 1472 1469 1465 1462 1460 1457 1451 1445 1442 1436 1428
1471 1477 1475 1482 1483 1476 1472 1474 1475 1474 1474 1473 1476 1480 1484 1487 1492 1498 1502 1505 1506 1507 1507 1503 1502 1500 1497 1495 1493 1489 1482 1480 1478 1474 1470 1466 1464 1462 1460 1456 1452 1447 1442 1439
1464 1463 1468 1471 1471 1472 1471 1472 1472 1472 1473 1476 1477 1480 1483 1487 1492 1498 1501 1504 1506 1506 1506 1505 1503 1501 1498 1496 1494 1491 1487 1485 1482 1478 1475 1471 1468 1462 1456 1451 1447 1442 1438 1436
1460 1460 1468 1472 1473 1472 1472 1473 1473 1474 1474 1477 1480 1482 1485 1488 1493 1499 1501 1504 1505 1506 1506 1506 1505 1503 1500 1499 1497 1494 1491 1489 1486 1483 1478 1474 1470 1467 1464 1458 1454 1454 1453 1454
1456 1458 1464 1469 1471 1472 1472 1472 1474 1475 1477 1478 1481 1484 1486 1490 1495 1499 1502 1504 1505 1505 1506 1506 1506 1504 1502 1502 1500 1497 1494 1492 1490 1486 1482 1478 1476 1473 1470 1466 1465 1463 1463 1461
1451 1455 1461 1460 1457 1461 1465 1469 1472 1475 1477 1479 1481 1485 1490 1493 1495 1498 1501 1503 1504 1505 1505 1506 1506 1505 1504 1504 1502 1500 1497 1495 1492 1489 1486 1482 1479 1476 1473 1472 1471 1468 1465 1462
Wind_Speed
4 2 7 9 8 8 7 6 5 5 8 3 5 3 8 12 21 18 20 23 26 29 30 32 36 38 39 40 40 40 41 42 44 37 38 42 43 39 32 31 34 34 36 42
4 7 13 9 11 9 11 7 7 5 5 4 3 2 5 8 11 16 17 21 26 31 34 36 39 40 42 44 43 43 42 41 40 34 31 36 39 41 40 30 36 34 38 35
8 7 13 13 12 12 6 5 4 7 3 4 3 2 4 6 15 14 14 17 23 26 31 38 41 42 43 43 44 43 41 41 39 34 32 32 34 41 38 36 33 33 32 40
8 11 5 8 9 8 12 7 7 4 5 2 4 5 4 4 7 10 13 19 26 30 33 37 40 44 44 42 39 39 39 39 38 33 34 30 33 37 37 39 37 39 32 35
7 11 13 11 5 4 4 2 2 2 4 3 6 2 2 2 2 7 15 21 27 30 34 38 40 41 40 38 37 37 36 36 35 33 30 30 32 32 34 39 41 38 40 32
11 15 8 9 11 4 3 2 6 3 2 3 6 7 2 3 3 5 10 18 26 31 34 35 35 37 38 37 36 36 35 35 36 33 31 27 28 31 33 37 41 40 40 43
7 5 5 7 9 6 4 5 3 4 1 5 1 1 1 4 4 5 11 21 24 30 32 35 36 38 37 38 37 37 36 35 34 30 26 23 24 26 28 27 35 38 39 41
4 8 2 6 6 6 5 7 4 5 3 4 10 5 3 7 5 7 11 14 18 28 29 31 33 35 35 36 36 36 33 35 32 27 23 21 20 23 26 24 27 32 32 34
3 6 8 5 6 6 3 4 7 5 0 2 3 3 6 6 4 8 13 16 21 25 28 30 32 33 35 36 37 35 35 33 32 29 21 18 17 16 19 20 19 24 21 20
1 8 3 6 7 6 4 3 3 2 1 4 2 3 3 0 5 5 8 13 20 22 25 28 31 33 34 35 36 33 34 34 34 31 26 17 15 11 9 17 19 14 19 22
2 3 5 7 1 7 4 2 1 3 4 3 2 4 2 4 4 1 5 11 15 20 23 27 29 31 35 36 37 36 37 36 39 38 32 29 20 4 3 9 19 16 19 15
1 1 5 11 15 13 8 10 4 3 4 1 2 4 3 6 7 5 6 9 13 19 21 24 27 31 36 38 40 39 38 38 39 40 34 33 31 24 19 21 26 26 25 23
5 2 4 6 2 4 5 8 8 3 2 4 4 5 6 8 6 3 5 4 12 19 21 23 27 30 34 38 40 40 38 37 37 41 39 38 37 33 32 35 33 36 33 31
3 3 5 4 3 2 5 6 1 4 0 2 4 4 9 6 4 2 1 4 9 15 19 22 25 29 32 34 36 40 39 38 37 37 40 40 41 40 39 42 45 41 36 32
4 5 3 6 8 9 13 15 11 10 10 6 5 4 8 8 7 3 3 2 6 11 17 19 23 25 29 32 34 36 39 39 39 38 38 41 42 44 44 50 52 49 45 43
4 4 2 17 11 11 15 16 15 15 5 3 3 4 6 16 13 6 2 1 4 7 13 16 19 21 25 29 31 34 36 39 41 41 41 38 39 41 46 47 48 49 48 45
5 3 2 10 11 7 7 10 11 4 4 6 7 6 12 11 12 8 5 2 4 5 10 13 15 19 20 23 27 30 32 34 39 42 42 43 43 43 44 43 45 46 47 44
5 6 3 3 3 4 6 4 6 10 7 6 4 11 15 15 15 10 8 4 3 6 7 9 9 12 14 16 21 24 28 32 36 40 40 41 41 40 39 40 40 40 43 43
10 4 4 5 5 4 3 1 2 4 4 7 11 10 18 21 15 6 9 6 5 4 4 6 5 8 9 14 15 20 25 28 31 34 36 36 36 36 35 36 36 38 38 40
7 7 6 1 3 3 3 2 6 4 3 12 16 18 23 20 5 4 15 10 7 5 2 6 6 5 8 10 12 16 23 25 28 27 28 30 31 35 35 34 37 36 35 35
7 5 14 7 4 5 2 2 5 2 3 9 25 27 26 7 4 17 18 12 11 4 3 5 7 10 11 9 10 15 18 24 20 21 24 27 29 31 32 33 33 33 33 33
8 6 6 4 3 9 3 1 5 2 8 10 18 17 20 17 20 23 16 16 13 7 2 5 7 10 12 11 10 12 18 18 16 18 21 24 25 27 29 29 30 30 30 30
6 5 4 3 4 3 3 4 5 8 12 9 14 16 22 24 25 23 17 19 14 7 3 5 7 9 12 12 12 11 14 14 13 15 18 20 23 26 29 32 33 34 33 33
4 4 3 4 3 7 9 10 10 9 8 10 9 14 18 24 29 23 22 18 13 8 4 3 5 9 12 13 12 13 11 12 14 14 17 20 22 23 25 27 29 29 31 31
4 6 6 2 4 7 8 10 11 11 12 12 12 14 20 27 22 17 19 15 11 8 4 3 6 10 12 12 12 12 11 11 14 16 16 17 18 19 21 23 23 22 23 24
3 5 4 5 16 6 13 18 14 13 14 13 18 21 22 22 19 22 19 15 11 8 6 5 7 9 11 11 11 11 11 12 13 16 15 14 15 17 18 18 17 16 17 16
Wind_Direction
272 118 238 233 212 247 273 258 246 269 261 272 278 268 25 70 72 59 38 21 8 360 350 346 346 343 337 334 331 327 320 312 310 302 286 273 262 254 249 246 248 256 254 249
317 246 243 252 257 238 245 257 284 271 275 312 232 110 111 81 81 73 45 19 6 355 350 347 348 345 343 338 336 332 327 321 316 308 291 281 274 258 257 247 244 247 252 251
240 251 297 278 270 255 251 236 245 259 330 321 315 245 156 112 94 67 37 19 6 358 349 349 347 345 342 340 337 333 329 327 324 315 300 285 278 269 259 253 238 242 246 249
253 262 295 294 260 240 269 242 264 309 22 250 85 283 176 170 82 49 22 10 3 358 352 350 347 345 343 341 337 334 332 329 327 321 309 294 285 276 264 257 245 239 243 243
248 319 327 321 278 267 243 224 237 260 275 318 175 251 347 145 358 21 9 5 360 353 353 352 349 344 342 343 340 339 333 329 331 320 308 298 288 279 273 258 253 242 245 245
260 272 254 235 256 226 280 10 338 317 146 294 215 188 269 343 341 333 355 2 357 355 355 353 349 347 347 347 345 343 339 335 332 321 307 297 295 289 281 272 257 252 249 250
309 240 248 244 238 224 147 66 332 323 16 230 218 312 354 107 49 24 4 353 350 355 357 356 354 353 352 352 352 351 347 342 339 328 311 301 289 286 282 280 262 260 251 258
288 319 247 337 203 198 169 160 169 245 228 260 347 280 258 122 93 41 14 347 352 357 360 359 359 358 358 360 358 359 357 357 353 337 323 311 296 281 279 274 271 264 261 265
271 256 315 350 338 166 196 194 225 237 114 37 188 103 183 144 67 33 5 351 360 357 356 0 4 4 5 6 4 4 4 4 2 0 345 323 308 288 275 267 256 255 249 253
241 299 249 330 356 272 204 165 14 350 313 251 221 216 234 188 331 7 352 349 357 357 0 5 9 10 13 14 12 11 15 15 18 16 14 0 334 306 274 255 241 228 225 222
125 124 309 332 270 266 344 323 225 177 154 220 258 261 142 156 195 255 332 351 0 2 7 8 10 17 18 22 21 19 21 24 26 26 27 25 25 38 110 175 221 210 190 167
64 27 294 281 266 260 290 302 215 163 237 198 169 259 128 152 139 72 331 351 12 13 20 16 16 19 25 25 29 25 26 30 33 37 39 38 39 60 81 102 119 154 161 143
141 217 306 306 15 29 66 357 8 46 89 217 136 264 164 140 116 76 325 17 21 15 24 24 23 24 29 28 31 31 30 34 37 41 45 39 38 48 59 89 95 95 101 108
129 188 214 238 207 219 302 295 230 6 51 213 231 193 186 151 148 113 39 53 25 20 29 28 25 25 31 32 32 34 35 39 40 44 47 50 47 45 55 68 85 91 96 97
156 205 246 266 269 276 268 275 243 210 218 208 236 211 188 159 153 148 132 52 28 20 29 32 28 25 28 30 32 37 37 39 42 45 48 49 52 53 54 67 75 75 77 78
192 240 181 283 281 257 262 260 248 228 217 245 194 230 139 137 132 165 130 87 35 33 31 32 34 31 28 28 30 33 36 37 40 42 45 49 55 58 58 59 66 73 76 76
184 158 156 266 261 273 275 234 223 188 191 170 209 194 148 144 157 175 163 141 74 62 47 33 34 36 30 31 31 33 33 37 40 41 42 42 44 49 52 56 59 61 64 68
189 207 206 266 290 256 245 237 218 211 190 122 101 143 155 142 139 162 167 144 89 95 78 38 29 39 40 33 35 37 34 37 38 39 42 42 42 45 47 52 56 60 62 64
194 177 249 224 213 294 262 3 322 201 189 170 140 126 122 128 132 166 175 148 112 117 71 37 24 27 47 43 32 41 41 38 40 39 40 40 42 46 48 51 54 57 57 56
195 191 207 268 249 256 222 228 324 40 274 167 147 148 145 145 178 171 167 149 139 156 55 31 36 37 44 47 28 37 46 37 37 37 38 41 42 42 45 48 50 51 54 57
196 197 223 235 251 273 160 263 319 157 232 136 162 161 157 170 179 151 152 146 145 151 68 28 46 52 47 39 31 36 45 43 29 31 32 34 38 40 41 44 45 48 50 50
182 183 208 183 224 264 117 95 186 147 68 123 162 170 161 151 140 143 148 148 149 141 71 43 47 56 55 49 42 42 43 42 26 26 31 29 31 33 34 39 43 45 46 48
184 182 185 185 215 118 98 122 156 169 138 119 131 154 168 152 147 144 138 146 146 147 108 53 48 53 54 49 47 49 49 38 36 29 35 37 32 30 29 28 30 32 33 35
225 145 136 145 191 157 134 133 141 157 154 143 141 146 155 147 143 137 139 143 146 142 124 62 61 61 57 52 48 50 50 43 46 39 34 31 31 29 27 27 28 26 27 27
203 130 133 96 139 141 188 176 164 147 143 143 140 149 147 142 145 146 147 159 160 154 132 99 76 67 60 54 55 56 52 47 47 40 36 33 32 32 30 26 25 27 24 26
194 161 167 219 185 160 178 167 181 167 158 154 143 139 142 147 148 145 152 168 165 150 128 110 88 71 63 56 55 56 52 48 46 48 44 39 28 25 26 25 29 27 22 26